| time (UTC) | temp F | wind direction | speed MPH | gust MPH | rain 1hr in | rain 24hr in | rain mn in | humidity % | barometer mb |
| 20260508142929 | 56 | 178 | 0.0 | 3.0 | 0.00 | 0.00 | 0.00 | 75 | 1010.8 |
| 20260508142438 | 56 | 178 | 0.0 | 3.0 | 0.00 | 0.00 | 0.00 | 75 | 1010.9 |
| 20260508141944 | 55 | 180 | 0.0 | 3.0 | 0.00 | 0.00 | 0.00 | 77 | 1010.9 |
| 20260508141414 | 55 | 181 | 1.0 | 3.0 | 0.00 | 0.00 | 0.00 | 76 | 1010.9 |
| 20260508140921 | 54 | 181 | 0.0 | 2.0 | 0.00 | 0.00 | 0.00 | 78 | 1010.9 |
| 20260508140430 | 53 | 31 | 0.0 | 3.0 | 0.00 | 0.00 | 0.00 | 78 | 1010.9 |
| 20260508135942 | 53 | 19 | 2.0 | 4.0 | 0.00 | 0.00 | 0.00 | 79 | 1010.9 |
| 20260508135453 | 52 | 15 | 1.0 | 5.0 | 0.00 | 0.00 | 0.00 | 79 | 1010.9 |
| 20260508134939 | 52 | 13 | 2.0 | 5.0 | 0.00 | 0.00 | 0.00 | 79 | 1011.0 |
| 20260508134428 | 52 | 13 | 2.0 | 5.0 | 0.00 | 0.00 | 0.00 | 78 | 1011.1 |
| 20260508133917 | 51 | 14 | 2.0 | 4.0 | 0.00 | 0.00 | 0.00 | 79 | 1010.9 |
| 20260508133425 | 51 | 13 | 2.0 | 4.0 | 0.00 | 0.00 | 0.00 | 81 | 1010.9 |
| 20260508132916 | 50 | 12 | 3.0 | 4.0 | 0.00 | 0.00 | 0.00 | 83 | 1010.9 |
| 20260508132423 | 49 | 11 | 1.0 | 4.0 | 0.00 | 0.00 | 0.00 | 86 | 1010.8 |
| 20260508131932 | 49 | 12 | 3.0 | 4.0 | 0.00 | 0.00 | 0.00 | 84 | 1010.9 |
| 20260508131423 | 49 | 13 | 2.0 | 3.0 | 0.00 | 0.00 | 0.00 | 88 | 1010.9 |
| 20260508130931 | 48 | 13 | 1.0 | 3.0 | 0.00 | 0.00 | 0.00 | 89 | 1010.9 |
| 20260508130419 | 48 | 14 | 1.0 | 2.0 | 0.00 | 0.00 | 0.00 | 90 | 1010.9 |
| 20260508125932 | 48 | 14 | 0.0 | 1.0 | 0.00 | 0.00 | 0.00 | 91 | 1011.0 |
| 20260508125437 | 47 | 14 | 0.0 | 2.0 | 0.00 | 0.00 | 0.00 | 91 | 1011.0 |
| 20260508124945 | 47 | 15 | 1.0 | 2.0 | 0.00 | 0.00 | 0.00 | 91 | 1010.6 |
| 20260508124416 | 46 | 18 | 0.0 | 1.0 | 0.00 | 0.00 | 0.00 | 92 | 1010.6 |
| 20260508123926 | 46 | 16 | 0.0 | 1.0 | 0.00 | 0.00 | 0.00 | 91 | 1010.8 |
| 20260508123414 | 46 | 16 | 0.0 | 2.0 | 0.00 | 0.00 | 0.00 | 91 | 1011.0 |
| 20260508122943 | 46 | 17 | 0.0 | 2.0 | 0.00 | 0.00 | 0.00 | 92 | 1011.1 |
| 20260508122427 | 46 | 19 | 0.0 | 1.0 | 0.00 | 0.00 | 0.00 | 92 | 1011.0 |
| 20260508121916 | 45 | 25 | 0.0 | 2.0 | 0.00 | 0.00 | 0.00 | 91 | 1011.1 |
| 20260508121429 | 45 | 27 | 0.0 | 2.0 | 0.00 | 0.00 | 0.00 | 92 | 1011.0 |
| 20260508120935 | 45 | 26 | 0.0 | 1.0 | 0.00 | 0.00 | 0.00 | 92 | 1010.9 |
| 20260508120446 | 45 | 26 | 0.0 | 1.0 | 0.00 | 0.00 | 0.00 | 91 | 1010.8 |
| 20260508115932 | 45 | 26 | 0.0 | 2.0 | 0.00 | 0.00 | 0.00 | 92 | 1011.0 |
| 20260508115441 | 44 | 24 | 1.0 | 2.0 | 0.00 | 0.00 | 0.00 | 92 | 1010.9 |
| 20260508114948 | 44 | 26 | 0.0 | 0.0 | 0.00 | 0.00 | 0.00 | 91 | 1010.9 |
| 20260508114417 | 44 | 31 | 0.0 | 0.0 | 0.00 | 0.00 | 0.00 | 91 | 1010.9 |
| 20260508113925 | 44 | 32 | 0.0 | 0.0 | 0.00 | 0.00 | 0.00 | 91 | 1010.8 |
| 20260508113431 | 44 | 32 | 0.0 | 0.0 | 0.00 | 0.00 | 0.00 | 91 | 1010.8 |
| 20260508112943 | 44 | 30 | 0.0 | 0.0 | 0.00 | 0.00 | 0.00 | 91 | 1010.6 |
| 20260508112430 | 43 | 32 | 0.0 | 0.0 | 0.00 | 0.00 | 0.00 | 91 | 1010.5 |
| 20260508111918 | 43 | 30 | 0.0 | 0.0 | 0.00 | 0.00 | 0.00 | 91 | 1010.5 |
| 20260508111429 | 43 | 31 | 0.0 | 0.0 | 0.00 | 0.00 | 0.00 | 91 | 1010.5 |
| 20260508110916 | 43 | 34 | 0.0 | 0.0 | 0.00 | 0.00 | 0.00 | 91 | 1010.5 |
| 20260508110426 | 42 | 30 | 0.0 | 0.0 | 0.00 | 0.00 | 0.00 | 91 | 1010.5 |
| 20260508105915 | 42 | 34 | 0.0 | 0.0 | 0.00 | 0.00 | 0.00 | 91 | 1010.5 |
| 20260508105419 | 42 | 36 | 0.0 | 0.0 | 0.00 | 0.00 | 0.00 | 90 | 1010.6 |
| 20260508104926 | 42 | 36 | 0.0 | 0.0 | 0.00 | 0.00 | 0.00 | 90 | 1010.5 |
| 20260508104438 | 42 | 33 | 0.0 | 0.0 | 0.00 | 0.00 | 0.00 | 90 | 1010.6 |
| 20260508103947 | 42 | 33 | 0.0 | 0.0 | 0.00 | 0.00 | 0.00 | 90 | 1010.5 |
| 20260508103414 | 42 | 34 | 0.0 | 0.0 | 0.00 | 0.00 | 0.00 | 90 | 1010.7 |
| 20260508102944 | 42 | 32 | 0.0 | 0.0 | 0.00 | 0.00 | 0.00 | 90 | 1010.8 |
| 20260508102430 | 42 | 34 | 0.0 | 0.0 | 0.00 | 0.00 | 0.00 | 90 | 1010.7 |
| 20260508101918 | 42 | 32 | 0.0 | 0.0 | 0.00 | 0.00 | 0.00 | 90 | 1010.6 |
| 20260508101428 | 42 | 31 | 0.0 | 0.0 | 0.00 | 0.00 | 0.00 | 90 | 1010.8 |
| 20260508100917 | 42 | 32 | 0.0 | 0.0 | 0.00 | 0.00 | 0.00 | 90 | 1010.6 |
| 20260508100427 | 41 | 31 | 0.0 | 0.0 | 0.00 | 0.00 | 0.00 | 89 | 1010.6 |
| 20260508095918 | 41 | 32 | 0.0 | 0.0 | 0.00 | 0.00 | 0.00 | 89 | 1010.5 |
| 20260508095422 | 41 | 30 | 0.0 | 0.0 | 0.00 | 0.00 | 0.00 | 89 | 1010.6 |
| 20260508094931 | 42 | 30 | 0.0 | 0.0 | 0.00 | 0.00 | 0.00 | 89 | 1010.6 |
| 20260508094420 | 42 | 31 | 0.0 | 0.0 | 0.00 | 0.00 | 0.00 | 89 | 1010.9 |
| 20260508093930 | 42 | 30 | 0.0 | 0.0 | 0.00 | 0.00 | 0.00 | 89 | 1010.8 |
| 20260508093418 | 42 | 32 | 0.0 | 0.0 | 0.00 | 0.00 | 0.00 | 89 | 1010.9 |
| 20260508092928 | 42 | 34 | 0.0 | 0.0 | 0.00 | 0.00 | 0.00 | 89 | 1010.9 |
| 20260508092415 | 42 | 32 | 0.0 | 0.0 | 0.00 | 0.00 | 0.00 | 89 | 1011.0 |
| 20260508091921 | 42 | 34 | 0.0 | 0.0 | 0.00 | 0.00 | 0.00 | 88 | 1010.9 |
| 20260508091434 | 43 | 32 | 0.0 | 0.0 | 0.00 | 0.00 | 0.00 | 88 | 1010.7 |
| 20260508090942 | 43 | 33 | 0.0 | 0.0 | 0.00 | 0.00 | 0.00 | 88 | 1010.8 |
| 20260508090430 | 43 | 34 | 0.0 | 0.0 | 0.00 | 0.00 | 0.00 | 88 | 1010.8 |
| 20260508085923 | 43 | 34 | 0.0 | 0.0 | 0.00 | 0.00 | 0.00 | 88 | 1010.8 |
| 20260508085431 | 43 | 32 | 0.0 | 0.0 | 0.00 | 0.00 | 0.00 | 88 | 1010.9 |
| 20260508085003 | 43 | 32 | 0.0 | 0.0 | 0.00 | 0.00 | 0.00 | 88 | 1011.0 |
| 20260508084426 | 43 | 31 | 0.0 | 0.0 | 0.00 | 0.00 | 0.00 | 88 | 1011.4 |
| 20260508084004 | 43 | 32 | 0.0 | 0.0 | 0.00 | 0.00 | 0.00 | 88 | 1011.0 |
| 20260508083449 | 43 | 29 | 0.0 | 0.0 | 0.00 | 0.00 | 0.00 | 87 | 1011.0 |
| 20260508082920 | 43 | 26 | 0.0 | 0.0 | 0.00 | 0.00 | 0.00 | 87 | 1011.1 |
| 20260508082429 | 44 | 26 | 0.0 | 0.0 | 0.00 | 0.00 | 0.00 | 87 | 1011.0 |
| 20260508081938 | 44 | 26 | 0.0 | 0.0 | 0.00 | 0.00 | 0.00 | 87 | 1011.0 |
| 20260508081456 | 44 | 25 | 0.0 | 0.0 | 0.00 | 0.00 | 0.00 | 87 | 1011.0 |
| 20260508080942 | 44 | 26 | 0.0 | 0.0 | 0.00 | 0.00 | 0.00 | 86 | 1011.1 |
| 20260508080447 | 44 | 25 | 0.0 | 0.0 | 0.00 | 0.00 | 0.00 | 86 | 1011.0 |
| 20260508075919 | 44 | 27 | 0.0 | 0.0 | 0.00 | 0.00 | 0.00 | 85 | 1011.0 |
| 20260508075428 | 44 | 26 | 0.0 | 0.0 | 0.00 | 0.00 | 0.00 | 85 | 1010.9 |
| 20260508074916 | 45 | 26 | 0.0 | 0.0 | 0.00 | 0.00 | 0.00 | 85 | 1011.1 |
| 20260508074425 | 45 | 28 | 0.0 | 0.0 | 0.00 | 0.00 | 0.00 | 84 | 1011.2 |
| 20260508073934 | 45 | 25 | 0.0 | 0.0 | 0.00 | 0.00 | 0.00 | 84 | 1011.2 |
| 20260508073424 | 46 | 28 | 0.0 | 0.0 | 0.00 | 0.00 | 0.00 | 84 | 1011.3 |
| 20260508072934 | 46 | 28 | 0.0 | 0.0 | 0.00 | 0.00 | 0.00 | 84 | 1011.3 |
| 20260508072418 | 46 | 26 | 0.0 | 0.0 | 0.00 | 0.00 | 0.00 | 83 | 1011.3 |
| 20260508071926 | 47 | 25 | 0.0 | 0.0 | 0.00 | 0.00 | 0.00 | 83 | 1011.4 |
| 20260508071418 | 47 | 22 | 0.0 | 0.0 | 0.00 | 0.00 | 0.00 | 83 | 1011.3 |
| 20260508070925 | 47 | 29 | 0.0 | 0.0 | 0.00 | 0.00 | 0.00 | 84 | 1011.3 |
| 20260508070433 | 47 | 23 | 0.0 | 2.0 | 0.00 | 0.00 | 0.00 | 83 | 1011.4 |
| 20260508065942 | 47 | 22 | 0.0 | 3.0 | 0.00 | 0.00 | 0.00 | 83 | 1011.4 |
| 20260508065429 | 47 | 24 | 2.0 | 3.0 | 0.00 | 0.00 | 0.00 | 83 | 1011.4 |
| 20260508064916 | 48 | 20 | 2.0 | 2.0 | 0.00 | 0.00 | 0.00 | 83 | 1011.4 |
| 20260508064427 | 48 | 23 | 0.0 | 2.0 | 0.00 | 0.00 | 0.00 | 83 | 1011.4 |
| 20260508063937 | 48 | 22 | 1.0 | 3.0 | 0.00 | 0.00 | 0.00 | 83 | 1011.3 |
| 20260508063423 | 48 | 20 | 2.0 | 3.0 | 0.00 | 0.00 | 0.00 | 82 | 1011.3 |
| 20260508062935 | 48 | 19 | 2.0 | 2.0 | 0.00 | 0.00 | 0.00 | 82 | 1011.4 |
| 20260508062443 | 48 | 20 | 1.0 | 2.0 | 0.00 | 0.00 | 0.00 | 82 | 1011.3 |
| 20260508061950 | 48 | 22 | 0.0 | 2.0 | 0.00 | 0.00 | 0.00 | 82 | 1011.4 |
| 20260508061419 | 48 | 21 | 1.0 | 3.0 | 0.00 | 0.00 | 0.00 | 82 | 1011.3 |
| 20260508060927 | 48 | 20 | 2.0 | 3.0 | 0.00 | 0.00 | 0.00 | 82 | 1011.4 |
| 20260508060417 | 48 | 21 | 1.0 | 3.0 | 0.00 | 0.00 | 0.00 | 81 | 1011.4 |
| 20260508055923 | 48 | 21 | 2.0 | 3.0 | 0.00 | 0.00 | 0.00 | 81 | 1011.4 |
| 20260508055431 | 48 | 18 | 1.0 | 4.0 | 0.00 | 0.00 | 0.00 | 81 | 1011.3 |
| 20260508054919 | 48 | 19 | 2.0 | 4.0 | 0.00 | 0.00 | 0.00 | 80 | 1011.3 |
| 20260508054430 | 49 | 18 | 0.0 | 0.0 | 0.00 | 0.00 | 0.00 | 80 | 1011.3 |
| 20260508053919 | 49 | 17 | 0.0 | 3.0 | 0.00 | 0.00 | 0.00 | 80 | 1011.2 |
| 20260508053427 | 49 | 17 | 1.0 | 3.0 | 0.00 | 0.00 | 0.00 | 79 | 1011.2 |
| 20260508052918 | 49 | 17 | 2.0 | 2.0 | 0.00 | 0.00 | 0.00 | 79 | 1011.2 |
| 20260508052423 | 49 | 17 | 0.0 | 0.0 | 0.00 | 0.00 | 0.00 | 78 | 1011.1 |
| 20260508051929 | 49 | 17 | 0.0 | 0.0 | 0.00 | 0.00 | 0.00 | 78 | 1011.1 |
| 20260508051442 | 49 | 18 | 0.0 | 0.0 | 0.00 | 0.00 | 0.00 | 77 | 1011.1 |
| 20260508050929 | 50 | 17 | 0.0 | 0.0 | 0.00 | 0.00 | 0.00 | 77 | 1011.1 |
| 20260508050416 | 50 | 15 | 0.0 | 0.0 | 0.00 | 0.00 | 0.00 | 76 | 1011.1 |
| 20260508045922 | 50 | 15 | 0.0 | 0.0 | 0.00 | 0.00 | 0.00 | 75 | 1011.2 |
| 20260508045426 | 50 | 16 | 0.0 | 0.0 | 0.00 | 0.00 | 0.00 | 75 | 1011.2 |
| 20260508044932 | 51 | 15 | 0.0 | 0.0 | 0.00 | 0.00 | 0.00 | 74 | 1011.0 |
| 20260508044425 | 51 | 15 | 0.0 | 0.0 | 0.00 | 0.00 | 0.00 | 74 | 1011.0 |
| 20260508043935 | 51 | 15 | 0.0 | 0.0 | 0.00 | 0.00 | 0.00 | 73 | 1011.0 |
| 20260508043440 | 51 | 17 | 0.0 | 0.0 | 0.00 | 0.00 | 0.00 | 73 | 1011.0 |
| 20260508042925 | 51 | 17 | 0.0 | 2.0 | 0.00 | 0.00 | 0.00 | 73 | 1011.0 |
| 20260508042434 | 52 | 17 | 1.0 | 2.0 | 0.00 | 0.00 | 0.00 | 72 | 1011.0 |
| 20260508041923 | 52 | 15 | 1.0 | 2.0 | 0.00 | 0.00 | 0.00 | 72 | 1011.0 |
| 20260508041417 | 52 | 15 | 1.0 | 3.0 | 0.00 | 0.00 | 0.00 | 72 | 1010.8 |
| 20260508040933 | 52 | 15 | 1.0 | 3.0 | 0.00 | 0.00 | 0.00 | 71 | 1010.8 |
| 20260508040443 | 52 | 15 | 2.0 | 5.0 | 0.00 | 0.00 | 0.00 | 71 | 1010.7 |
| 20260508035932 | 52 | 15 | 2.0 | 5.0 | 0.00 | 0.00 | 0.00 | 71 | 1010.8 |
| 20260508035435 | 52 | 15 | 3.0 | 5.0 | 0.00 | 0.00 | 0.00 | 71 | 1010.8 |
| 20260508034943 | 52 | 15 | 1.0 | 6.0 | 0.00 | 0.00 | 0.00 | 71 | 1010.8 |
| 20260508034426 | 52 | 15 | 3.0 | 6.0 | 0.00 | 0.00 | 0.00 | 71 | 1010.7 |
| 20260508033933 | 52 | 15 | 3.0 | 5.0 | 0.00 | 0.00 | 0.00 | 72 | 1010.7 |
| 20260508033442 | 51 | 15 | 3.0 | 4.0 | 0.00 | 0.00 | 0.00 | 72 | 1010.7 |
| 20260508032925 | 51 | 16 | 2.0 | 5.0 | 0.00 | 0.00 | 0.00 | 73 | 1010.8 |
| 20260508032433 | 51 | 15 | 3.0 | 5.0 | 0.00 | 0.00 | 0.00 | 74 | 1010.7 |
| 20260508031940 | 50 | 15 | 3.0 | 4.0 | 0.00 | 0.00 | 0.00 | 75 | 1010.8 |
| 20260508031429 | 49 | 19 | 1.0 | 3.0 | 0.00 | 0.00 | 0.00 | 78 | 1010.8 |
| 20260508030918 | 48 | 17 | 0.0 | 0.0 | 0.00 | 0.00 | 0.00 | 78 | 1010.7 |
| 20260508030427 | 48 | 17 | 0.0 | 0.0 | 0.00 | 0.00 | 0.00 | 76 | 1010.8 |
| 20260508025918 | 49 | 17 | 0.0 | 0.0 | 0.00 | 0.00 | 0.00 | 74 | 1010.7 |
| 20260508025428 | 50 | 17 | 0.0 | 0.0 | 0.00 | 0.00 | 0.00 | 72 | 1010.7 |
| 20260508024916 | 51 | 16 | 0.0 | 0.0 | 0.00 | 0.00 | 0.00 | 72 | 1010.5 |
| 20260508024422 | 51 | 17 | 0.0 | 0.0 | 0.00 | 0.00 | 0.00 | 71 | 1010.4 |
| 20260508023932 | 51 | 15 | 0.0 | 0.0 | 0.00 | 0.00 | 0.00 | 71 | 1010.4 |
| 20260508023420 | 52 | 15 | 0.0 | 0.0 | 0.00 | 0.00 | 0.00 | 71 | 1010.2 |
| 20260508022948 | 52 | 15 | 0.0 | 0.0 | 0.00 | 0.00 | 0.00 | 70 | 1010.2 |
| 20260508022438 | 52 | 15 | 0.0 | 0.0 | 0.00 | 0.00 | 0.00 | 70 | 1010.2 |
| 20260508021946 | 52 | 15 | 0.0 | 0.0 | 0.00 | 0.00 | 0.00 | 70 | 1010.1 |
| 20260508021416 | 52 | 15 | 0.0 | 0.0 | 0.00 | 0.00 | 0.00 | 70 | 1010.1 |
| 20260508020926 | 52 | 15 | 0.0 | 0.0 | 0.00 | 0.00 | 0.00 | 70 | 1010.1 |
| 20260508020415 | 52 | 15 | 0.0 | 0.0 | 0.00 | 0.00 | 0.00 | 71 | 1010.1 |
| 20260508015925 | 52 | 15 | 0.0 | 0.0 | 0.00 | 0.00 | 0.00 | 71 | 1010.1 |
| 20260508015434 | 53 | 15 | 0.0 | 0.0 | 0.00 | 0.00 | 0.00 | 71 | 1010.0 |
| 20260508014923 | 53 | 15 | 0.0 | 0.0 | 0.00 | 0.00 | 0.00 | 71 | 1010.0 |
| 20260508014432 | 53 | 14 | 0.0 | 0.0 | 0.00 | 0.00 | 0.00 | 71 | 1009.9 |
| 20260508013940 | 53 | 14 | 0.0 | 0.0 | 0.00 | 0.00 | 0.00 | 71 | 1009.9 |
| 20260508013447 | 53 | 15 | 0.0 | 0.0 | 0.00 | 0.00 | 0.00 | 71 | 1009.8 |
| 20260508012936 | 53 | 15 | 0.0 | 0.0 | 0.00 | 0.00 | 0.00 | 71 | 1009.8 |
| 20260508012443 | 53 | 14 | 0.0 | 0.0 | 0.00 | 0.00 | 0.00 | 71 | 1009.7 |
| 20260508011931 | 54 | 14 | 0.0 | 0.0 | 0.00 | 0.00 | 0.00 | 71 | 1009.7 |
| 20260508011424 | 54 | 14 | 0.0 | 0.0 | 0.00 | 0.00 | 0.00 | 71 | 1009.7 |
| 20260508010933 | 54 | 14 | 0.0 | 0.0 | 0.00 | 0.00 | 0.00 | 69 | 1009.7 |
| 20260508010422 | 55 | 13 | 0.0 | 0.0 | 0.00 | 0.00 | 0.00 | 69 | 1009.6 |
| 20260508005930 | 55 | 14 | 0.0 | 0.0 | 0.00 | 0.00 | 0.00 | 68 | 1009.6 |
| 20260508005440 | 55 | 13 | 0.0 | 0.0 | 0.00 | 0.00 | 0.00 | 68 | 1009.5 |
| 20260508004944 | 56 | 13 | 0.0 | 0.0 | 0.00 | 0.00 | 0.00 | 65 | 1009.3 |
| 20260508004415 | 56 | 13 | 0.0 | 0.0 | 0.00 | 0.00 | 0.00 | 63 | 1009.3 |
| 20260508003925 | 56 | 13 | 0.0 | 0.0 | 0.00 | 0.00 | 0.00 | 63 | 1009.4 |
| 20260508003434 | 56 | 13 | 0.0 | 0.0 | 0.00 | 0.00 | 0.00 | 63 | 1009.3 |
| 20260508002921 | 57 | 14 | 0.0 | 2.0 | 0.00 | 0.00 | 0.00 | 61 | 1009.4 |
| 20260508002429 | 57 | 14 | 0.0 | 2.0 | 0.00 | 0.00 | 0.00 | 62 | 1009.4 |
| 20260508001938 | 57 | 14 | 0.0 | 2.0 | 0.00 | 0.00 | 0.00 | 62 | 1009.3 |
| 20260508001428 | 57 | 14 | 1.0 | 5.0 | 0.00 | 0.00 | 0.00 | 63 | 1009.3 |
| 20260508000937 | 57 | 15 | 2.0 | 6.0 | 0.00 | 0.00 | 0.00 | 63 | 1009.5 |
| 20260508000445 | 57 | 15 | 1.0 | 6.0 | 0.00 | 0.00 | 0.00 | 63 | 1009.5 |
| 20260507235915 | 56 | 14 | 2.0 | 4.0 | 0.00 | 0.00 | 0.00 | 65 | 1009.4 |
| 20260507235425 | 56 | 14 | 0.0 | 2.0 | 0.00 | 0.00 | 0.00 | 66 | 1009.5 |
| 20260507234929 | 56 | 15 | 0.0 | 2.0 | 0.00 | 0.00 | 0.00 | 69 | 1009.4 |
| 20260507234422 | 55 | 13 | 1.0 | 2.0 | 0.00 | 0.00 | 0.00 | 68 | 1009.6 |
| 20260507233930 | 55 | 13 | 0.0 | 2.0 | 0.00 | 0.00 | 0.00 | 68 | 1009.6 |
| 20260507233417 | 55 | 14 | 0.0 | 3.0 | 0.00 | 0.00 | 0.00 | 69 | 1009.6 |
| 20260507232927 | 55 | 15 | 1.0 | 3.0 | 0.00 | 0.00 | 0.00 | 70 | 1009.6 |
| 20260507232416 | 54 | 15 | 1.0 | 3.0 | 0.00 | 0.00 | 0.00 | 72 | 1009.7 |
| 20260507231925 | 53 | 13 | 1.0 | 3.0 | 0.00 | 0.00 | 0.00 | 74 | 1009.6 |
| 20260507231438 | 53 | 12 | 1.0 | 2.0 | 0.00 | 0.00 | 0.00 | 78 | 1009.6 |
| 20260507230948 | 54 | 12 | 0.0 | 3.0 | 0.00 | 0.00 | 0.00 | 80 | 1009.7 |
| 20260507230417 | 53 | 12 | 0.0 | 4.0 | 0.00 | 0.00 | 0.00 | 79 | 1009.8 |
| 20260507225926 | 53 | 12 | 1.0 | 4.0 | 0.00 | 0.00 | 0.00 | 78 | 1010.0 |
| 20260507225434 | 53 | 10 | 0.0 | 0.0 | 0.00 | 0.00 | 0.00 | 79 | 1010.1 |
| 20260507224923 | 53 | 9 | 0.0 | 0.0 | 0.00 | 0.00 | 0.00 | 79 | 1010.1 |
| 20260507224431 | 53 | 9 | 0.0 | 1.0 | 0.00 | 0.00 | 0.00 | 78 | 1010.1 |
| 20260507223920 | 53 | 10 | 0.0 | 2.0 | 0.00 | 0.00 | 0.00 | 80 | 1010.0 |
| 20260507223426 | 52 | 10 | 1.0 | 2.0 | 0.00 | 0.00 | 0.00 | 79 | 1010.0 |
| 20260507222937 | 52 | 11 | 0.0 | 2.0 | 0.00 | 0.00 | 0.00 | 79 | 1010.2 |
| 20260507222454 | 52 | 11 | 0.0 | 3.0 | 0.00 | 0.00 | 0.00 | 77 | 1010.4 |
| 20260507221942 | 52 | 10 | 1.0 | 3.0 | 0.00 | 0.00 | 0.00 | 77 | 1010.4 |
| 20260507221433 | 52 | 18 | 0.0 | 4.0 | 0.00 | 0.00 | 0.00 | 75 | 1010.6 |
| 20260507220940 | 53 | 17 | 1.0 | 8.0 | 0.00 | 0.00 | 0.00 | 71 | 1010.5 |
| 20260507220450 | 54 | 17 | 3.0 | 11.0 | 0.00 | 0.00 | 0.00 | 66 | 1010.8 |
| 20260507215921 | 55 | 27 | 5.0 | 13.0 | 0.00 | 0.00 | 0.00 | 60 | 1010.8 |
| 20260507215427 | 57 | 19 | 6.0 | 13.0 | 0.00 | 0.00 | 0.00 | 53 | 1010.2 |
| 20260507214915 | 59 | 17 | 5.0 | 17.0 | 0.00 | 0.00 | 0.00 | 53 | 1009.9 |
| 20260507214426 | 59 | 17 | 7.0 | 17.0 | 0.00 | 0.00 | 0.00 | 54 | 1009.7 |
| 20260507213932 | 59 | 17 | 4.0 | 10.0 | 0.00 | 0.00 | 0.00 | 54 | 1009.6 |
| 20260507213419 | 59 | 17 | 5.0 | 15.0 | 0.00 | 0.00 | 0.00 | 54 | 1009.7 |
| 20260507212932 | 59 | 17 | 6.0 | 17.0 | 0.00 | 0.00 | 0.00 | 53 | 1009.7 |
| 20260507212418 | 59 | 14 | 6.0 | 18.0 | 0.00 | 0.00 | 0.00 | 53 | 1009.6 |
| 20260507211927 | 59 | 17 | 9.0 | 18.0 | 0.00 | 0.00 | 0.00 | 52 | 1009.7 |
| 20260507211417 | 60 | 19 | 7.0 | 14.0 | 0.00 | 0.00 | 0.00 | 53 | 1009.8 |
| 20260507210927 | 60 | 21 | 6.0 | 17.0 | 0.00 | 0.00 | 0.00 | 55 | 1009.9 |
| 20260507210435 | 60 | 20 | 5.0 | 17.0 | 0.00 | 0.00 | 0.00 | 55 | 1010.0 |
| 20260507205927 | 60 | 17 | 5.0 | 13.0 | 0.00 | 0.00 | 0.00 | 56 | 1009.9 |
| 20260507205436 | 60 | 17 | 6.0 | 13.0 | 0.00 | 0.00 | 0.00 | 55 | 1009.9 |
| 20260507204944 | 59 | 17 | 5.0 | 16.0 | 0.00 | 0.00 | 0.00 | 56 | 1010.0 |
| 20260507204432 | 59 | 17 | 8.0 | 17.0 | 0.00 | 0.00 | 0.00 | 54 | 1010.0 |
| 20260507203921 | 59 | 16 | 8.0 | 17.0 | 0.00 | 0.00 | 0.00 | 54 | 1010.1 |
| 20260507203428 | 59 | 17 | 3.0 | 13.0 | 0.00 | 0.00 | 0.00 | 57 | 1010.1 |
| 20260507202944 | 58 | 15 | 6.0 | 13.0 | 0.00 | 0.00 | 0.00 | 55 | 1010.1 |
| 20260507202452 | 58 | 17 | 6.0 | 16.0 | 0.00 | 0.00 | 0.00 | 59 | 1010.4 |
| 20260507201918 | 58 | 18 | 8.0 | 16.0 | 0.00 | 0.00 | 0.00 | 57 | 1010.6 |
| 20260507201430 | 58 | 17 | 5.0 | 14.0 | 0.00 | 0.00 | 0.00 | 58 | 1010.5 |
| 20260507200920 | 57 | 17 | 8.0 | 15.0 | 0.00 | 0.00 | 0.00 | 57 | 1010.5 |
| 20260507200426 | 58 | 16 | 7.0 | 19.0 | 0.00 | 0.00 | 0.00 | 57 | 1010.6 |
| 20260507195938 | 57 | 17 | 11.0 | 19.0 | 0.00 | 0.00 | 0.00 | 57 | 1010.8 |
| 20260507195425 | 57 | 15 | 4.0 | 19.0 | 0.00 | 0.00 | 0.00 | 59 | 1011.0 |
| 20260507194916 | 57 | 15 | 11.0 | 19.0 | 0.00 | 0.00 | 0.00 | 57 | 1011.1 |
| 20260507194420 | 57 | 17 | 8.0 | 14.0 | 0.00 | 0.00 | 0.00 | 58 | 1011.5 |
| 20260507193928 | 57 | 16 | 5.0 | 18.0 | 0.00 | 0.00 | 0.00 | 59 | 1011.4 |
| 20260507193416 | 57 | 16 | 9.0 | 18.0 | 0.00 | 0.00 | 0.00 | 57 | 1011.5 |
| 20260507192928 | 57 | 18 | 7.0 | 18.0 | 0.00 | 0.00 | 0.00 | 58 | 1011.5 |
| 20260507192437 | 57 | 17 | 6.0 | 15.0 | 0.00 | 0.00 | 0.00 | 58 | 1011.6 |
| 20260507191945 | 56 | 17 | 5.0 | 17.0 | 0.00 | 0.00 | 0.00 | 59 | 1011.7 |
| 20260507191435 | 57 | 17 | 8.0 | 22.0 | 0.00 | 0.00 | 0.00 | 57 | 1011.8 |
| 20260507190943 | 56 | 16 | 7.0 | 22.0 | 0.00 | 0.00 | 0.00 | 58 | 1011.8 |
| 20260507190429 | 56 | 17 | 8.0 | 22.0 | 0.00 | 0.00 | 0.00 | 58 | 1011.8 |
| 20260507185942 | 56 | 17 | 10.0 | 22.0 | 0.00 | 0.00 | 0.00 | 56 | 1012.0 |
| 20260507185429 | 57 | 18 | 7.0 | 20.0 | 0.00 | 0.00 | 0.00 | 56 | 1011.8 |
| 20260507184916 | 57 | 15 | 7.0 | 20.0 | 0.00 | 0.00 | 0.00 | 55 | 1011.8 |
| 20260507184425 | 57 | 15 | 9.0 | 21.0 | 0.00 | 0.00 | 0.00 | 52 | 1011.9 |
| 20260507183933 | 57 | 17 | 10.0 | 21.0 | 0.00 | 0.00 | 0.00 | 50 | 1011.9 |
| 20260507183440 | 57 | 17 | 10.0 | 19.0 | 0.00 | 0.00 | 0.00 | 49 | 1011.9 |
| 20260507182925 | 57 | 17 | 7.0 | 15.0 | 0.00 | 0.00 | 0.00 | 48 | 1011.9 |
| 20260507182415 | 58 | 24 | 6.0 | 14.0 | 0.00 | 0.00 | 0.00 | 47 | 1011.9 |
| 20260507181924 | 58 | 22 | 5.0 | 16.0 | 0.00 | 0.00 | 0.00 | 49 | 1011.8 |
| 20260507181434 | 58 | 17 | 7.0 | 16.0 | 0.00 | 0.00 | 0.00 | 47 | 1011.9 |
| 20260507180923 | 57 | 19 | 4.0 | 19.0 | 0.00 | 0.00 | 0.00 | 48 | 1012.0 |
| 20260507180432 | 57 | 17 | 7.0 | 19.0 | 0.00 | 0.00 | 0.00 | 48 | 1012.0 |
| 20260507175923 | 57 | 19 | 6.0 | 11.0 | 0.00 | 0.00 | 0.00 | 46 | 1012.0 |
| 20260507175432 | 57 | 24 | 6.0 | 19.0 | 0.00 | 0.00 | 0.00 | 44 | 1012.2 |
| 20260507174922 | 57 | 19 | 9.0 | 19.0 | 0.00 | 0.00 | 0.00 | 44 | 1012.2 |
| 20260507174431 | 58 | 31 | 7.0 | 16.0 | 0.00 | 0.00 | 0.00 | 45 | 1012.2 |
| 20260507173937 | 58 | 24 | 7.0 | 15.0 | 0.00 | 0.00 | 0.00 | 44 | 1012.4 |
| 20260507173424 | 58 | 27 | 6.0 | 15.0 | 0.00 | 0.00 | 0.00 | 44 | 1012.4 |
| 20260507172915 | 58 | 26 | 4.0 | 10.0 | 0.00 | 0.00 | 0.00 | 46 | 1012.5 |
| 20260507172425 | 57 | 21 | 4.0 | 10.0 | 0.00 | 0.00 | 0.00 | 47 | 1012.6 |
| 20260507171930 | 57 | 16 | 4.0 | 9.0 | 0.00 | 0.00 | 0.00 | 46 | 1012.7 |
| 20260507171443 | 56 | 19 | 4.0 | 12.0 | 0.00 | 0.00 | 0.00 | 46 | 1012.9 |
| 20260507170931 | 56 | 19 | 6.0 | 12.0 | 0.00 | 0.00 | 0.00 | 47 | 1013.1 |
| 20260507170419 | 56 | 22 | 2.0 | 13.0 | 0.00 | 0.00 | 0.00 | 48 | 1013.3 |
| 20260507165932 | 55 | 25 | 4.0 | 16.0 | 0.00 | 0.00 | 0.00 | 47 | 1013.2 |
| 20260507165422 | 55 | 24 | 8.0 | 16.0 | 0.00 | 0.00 | 0.00 | 46 | 1013.4 |
| 20260507164930 | 55 | 23 | 6.0 | 15.0 | 0.00 | 0.00 | 0.00 | 46 | 1013.4 |
| 20260507164441 | 56 | 22 | 5.0 | 14.0 | 0.00 | 0.00 | 0.00 | 45 | 1013.3 |
| 20260507163951 | 55 | 28 | 4.0 | 12.0 | 0.00 | 0.00 | 0.00 | 45 | 1013.5 |
| 20260507163418 | 56 | 28 | 6.0 | 12.0 | 0.00 | 0.00 | 0.00 | 45 | 1013.6 |
| 20260507162928 | 55 | 28 | 5.0 | 10.0 | 0.00 | 0.00 | 0.00 | 47 | 1013.7 |
| 20260507162415 | 55 | 34 | 3.0 | 12.0 | 0.00 | 0.00 | 0.00 | 47 | 1013.8 |
| 20260507161950 | 55 | 30 | 5.0 | 11.0 | 0.00 | 0.00 | 0.00 | 47 | 1014.0 |
| 20260507161440 | 54 | 28 | 3.0 | 11.0 | 0.00 | 0.00 | 0.00 | 46 | 1014.2 |
| 20260507160948 | 54 | 41 | 3.0 | 10.0 | 0.00 | 0.00 | 0.00 | 46 | 1014.1 |
| 20260507160416 | 55 | 33 | 4.0 | 7.0 | 0.00 | 0.00 | 0.00 | 46 | 1014.3 |
| 20260507155948 | 55 | 138 | 2.0 | 8.0 | 0.00 | 0.00 | 0.00 | 46 | 1014.4 |
| 20260507155415 | 54 | 133 | 4.0 | 8.0 | 0.00 | 0.00 | 0.00 | 47 | 1014.3 |
| 20260507154922 | 53 | 159 | 3.0 | 8.0 | 0.00 | 0.00 | 0.00 | 47 | 1014.3 |
| 20260507154426 | 53 | 141 | 5.0 | 11.0 | 0.00 | 0.00 | 0.00 | 46 | 1014.4 |
| 20260507153933 | 53 | 142 | 7.0 | 11.0 | 0.00 | 0.00 | 0.00 | 44 | 1014.6 |
| 20260507153441 | 53 | 184 | 2.0 | 4.0 | 0.00 | 0.00 | 0.00 | 45 | 1014.5 |
| 20260507152926 | 53 | 205 | 1.0 | 9.0 | 0.00 | 0.00 | 0.00 | 45 | 1014.5 |
| 20260507152432 | 52 | 155 | 2.0 | 9.0 | 0.00 | 0.00 | 0.00 | 48 | 1014.5 |
| 20260507151920 | 52 | 360 | 3.0 | 9.0 | 0.00 | 0.00 | 0.00 | 45 | 1014.7 |
| 20260507151431 | 52 | 360 | 3.0 | 9.0 | 0.00 | 0.00 | 0.00 | 47 | 1014.6 |
| 20260507150920 | 52 | 360 | 4.0 | 8.0 | 0.00 | 0.00 | 0.00 | 48 | 1014.7 |
| 20260507150426 | 52 | 360 | 2.0 | 10.0 | 0.00 | 0.00 | 0.00 | 47 | 1014.8 |
| 20260507145916 | 51 | 360 | 4.0 | 10.0 | 0.00 | 0.00 | 0.00 | 47 | 1014.9 |
| 20260507145424 | 51 | 360 | 2.0 | 8.0 | 0.00 | 0.00 | 0.00 | 49 | 1014.9 |
| 20260507144932 | 51 | 360 | 3.0 | 7.0 | 0.00 | 0.00 | 0.00 | 50 | 1014.9 |
| 20260507144436 | 51 | 360 | 2.0 | 7.0 | 0.00 | 0.00 | 0.00 | 51 | 1014.9 |
| 20260507143924 | 50 | 286 | 1.0 | 5.0 | 0.00 | 0.00 | 0.00 | 53 | 1015.0 |
| 20260507143431 | 50 | 266 | 2.0 | 7.0 | 0.00 | 0.00 | 0.00 | 54 | 1015.1 |